SL-16 DEB, 29097

Orbit data source: Space-Track

SL-16 DEB, 29097 is space debris in LEO originally from a launch on Fri, 26 Mar 1993 UTC launched from the Tyuratam Missile And Space Complex (TTMTR). Debris objects in space refer to the collection of defunct objects orbiting the Earth. Examples of debris include non-operational satellites, rocket bodies, and fragments generated from explosions, collisions, or faulty payload assembly.

Loading next visibility...
Identifier
29097, 1993-016AL
Orbit
LEO
Country
Flag of CISCIS
Related business
Manufacturer
Unknown
Mission
Spacecraft
Bus & Motor
Unknown
Mass
Unknown
Launch date (UTC)
1993-03-26 (32 years ago)
Launch vehicle
Unknown
Launch site
Tyuratam Missile And Space Complex (TTMTR)
Object type
Payload
Rocket body
Debris
Shape & HBR
Unknown
Radar Cross Section
Small (<0.1 m²)

Expand to show TLE details & history
Last TLE update: 2 days ago

TLE from 2 days ago
0 SL-16 DEB
1 29097U 93016AL  25257.10028763  .00000090  00000-0  95239-4 0  9995
2 29097  71.0085  15.7482 0127772 290.1429 251.4060 13.94500158235655
Epoch: 2025-09-14T02:24Z
TLE epoch observation values (Epoch: 2025-09-14T02:24:24.851Z)
Latitude
-0.26572°
Longitude
166.41148°
Altitude
946.087 km
Speed
7.363 km/s
True Right ascension
13h 03m 21s
True Declination
0° 15' 51"
Sunlit
Object was in daylight at epoch
Visualization orbit readout
Latitude
Unknown
Longitude
Unknown
Altitude
Unknown
Speed
Unknown
Apparent Right ascension
Unknown
Apparent Declination
Unknown
Sunlit
N/A
Visualization observer readout
Local Sidereal Time
19:40:22
Azimuth
Unknown
Elevation
Unknown
Doppler factor
Unknown
Orbital elements
Apogee altitude
1,003.979 km
Perigee altitude
817.714 km
Semi-major axis
7,288.983 km
Eccentricity
0.01278
Inclination
71.0085°
RAAN
15.7482°
Arg. of periapsis
290.1429°
True anomaly
250.02543°
Mean anomaly
251.406°
Eccentric anomaly
250.715°
Mean motion
3.48773 °/min
Orbital period
103.22 mins
BSTAR
0.000095239
Loading maneuver chart data...
Computing Atmospheric mass density...
Loading historical data...
Loading historical data...
Loading historical data...
Loading historical data...
Loading historical data...
Loading historical data...
Loading historical data...

Documentation

Showing up to 5 results
|